Regional Weather Roundup
Issued by NWS Nashville, TN

Home | Current Version | Previous Version | Text Only | Print | Product List | Glossary On
Versions: 1 2 3 4 5 6 7 8 9 10 11 12 13 14 15 16 17 18 19 20 21 22 23 24 25 26 27 28 29 30 31 32 33 34 35 36 37 38 39 40 41 42 43 44 45 46 47 48 49 50
000
ASUS44 KOHX 231715
RWROHX
MIDDLE TENNESSEE HOURLY WEATHER ROUNDUP
NATIONAL WEATHER SERVICE NASHVILLE TN
1200 PM CDT SAT AUG 23 2014

NOTE: "FAIR" INDICATES FEW OR NO CLOUDS BELOW 12,000 FEET WITH
NO SIGNIFICANT WEATHER AND/OR OBSTRUCTIONS TO VISIBILITY.

* THESE REPORTS ARE NOT UNDER NWS QUALITY CONTROL AND MAY NOT
  REPORT WEATHER SUCH AS PRECIPITATION AND FOG.


TNZ005>011-023>034-057-059-062>066-078-080-231800
...NORTHERN MIDDLE TENNESSEE...

CITY           SKY/WX    TMP DP  RH WIND       PRES   REMARKS
CLARKSVILLE    PTSUNNY   89  79  72 S6        29.99F HX 104
CROSSVILLE     PTSUNNY   83  71  67 N7        30.09F
GALLATIN         N/A     91  73  55 VRB5      30.03F HX  99
DICKSON        PTSUNNY   84  75  74 W7        30.03F HX  92
LEBANON        MOSUNNY   88  71  56 VRB3      30.02S HX  93
LIVINGSTON     SUNNY     86  68  54 VRB3      30.06F
NASHVILLE      PTSUNNY   92  73  53 VRB5      30.03S HX 100
WEST NASHVILLE   N/A     90  75  62 NW6       30.01F HX 100
PORTLAND       MOSUNNY   86  73  66 SW7       30.02S HX  93
SMYRNA         SUNNY     89  73  59 VRB3      30.03F HX  96
SPARTA         MOSUNNY   90  75  62 CALM      30.04F HX 100
$$
TNZ056-058-060-061-075>077-079-093>097-231800
...SOUTHERN MIDDLE TENNESSEE...

CITY           SKY/WX    TMP DP  RH WIND       PRES   REMARKS
COLUMBIA       SUNNY     90  79  70 N5        30.02F HX 105
FAYETTEVILLE   MOSUNNY   88  73  62 NW7       30.05S HX  96
LEWISBURG      MOSUNNY   88  74  63 VRB3      30.04S HX  96
MCMINNVILLE    MOSUNNY   88  75  66 N7        30.05S HX  97
MURFREESBORO   MOSUNNY   88  71  56 CALM      30.02F HX  93
SHELBYVILLE    PTSUNNY   90  75  62 NW6       30.05S HX 100
TULLAHOMA      MOSUNNY   88  72  58 NW9       30.06F HX  94
WINCHESTER     SUNNY     88  73  62 N7        30.05S HX  96
$$


...KEY TO REMARKS...
VSB - VISIBILITY IN MILES
WCI - WIND CHILL INDEX
HX  - HEAT INDEX



USA.gov is the U.S. government's official web portal to all federal, state and local government web resources and services.